STARLINK-2206 (47420 NORAD) Tracking and Keplerian Element Data

This shows tracking and keplerian element data for the satellite.

Feedback or suggestion? Click here.




ElementValue
Catalog47420
NameSTARLINK-2206
Epoch Orbit1164
Epoch Day99.53500293
Epoch Year2021
RAAN162.1783
Inclination97.5
Eccentricity0.0011427
Argument of Perigee22.3048
Mean Anonmoly337.8678
Mean Motion15.14329775
Decay Rate9.76E-06
L11 47420U 21006H 21099.53500293 .00000976 00000-0 56816-4 0 9996
L22 47420 97.5000 162.1783 0011427 22.3048 337.8678 15.14329775 11640

Live tracking and technical data element details for STARLINK-2206 (NORAD 47420). STARLINK-2206 can be tracked NOW for your location showing map with azimuth and elevation plus other details from your city location.

Track the satellite on the map from your city or location and see movement details for azimuth, elevation, latitude, longitude, range, height, and movement on the map or in text.







IsCatalogInMostPopularTable: catalog: 47420, numindb: 17
Update: records affected: 1



GetName: 47420 STARLINK-2206

Hit Count: updated at: Sat, 10 Apr 2021 18:31:51 GMT